[[{"header":{"parameterUnit":"m.s-1","parameterCategory":1,"la1":30.2991,"la2":30.254,"lo1":-89.0895,"lo2":-89.0444,"dy":0.0017,"dx":0.0017,"nx":28,"ny":28,"refTime":"2025-08-24T21:00:00:Z","depth":0,"parameterNumber":2,"parameterNumberName":"U-component_of_WINDS"},"data":[0,0,0,0,0,0,0,0,0,0,0,0,0,0,0,0,0,0,0,0,0,0,0,0,0,0,0,0,0,0,0,0,0,0,0,0,0,0,0,0,0,0,0,0,0,0,0,0,0,0,0,0,0,0,0,0,0,0,4.6645,4.6645,0,4.6664,4.6664,4.6664,4.6509,4.6505,4.65,4.6496,4.6515,4.6519,4.6524,0,0,0,0,0,0,0,0,0,0,0,0,0,4.6475,4.6479,4.6645,4.6645,4.6646,4.6664,4.6664,4.6664,4.651,4.6504,4.6499,4.6494,4.6513,4.6519,4.6524,0,0,0,0,0,0,0,0,0,0,0,0,0,4.6527,4.648,4.6645,4.6571,4.6564,4.6664,4.6664,4.6664,4.6511,4.6504,4.6498,4.6492,4.6511,4.6518,4.6525,4.6696,0,0,4.6545,4.6548,0,0,0,0,0,0,0,0,4.6524,4.6533,4.6581,4.6576,4.6569,4.6577,4.661,4.6675,4.6512,4.6531,4.6496,4.6489,4.6541,4.6545,4.6562,4.6697,4.6698,4.6546,4.655,4.6553,4.6555,0,0,0,0,0,0,0,4.6521,4.6531,4.6652,4.6582,4.6575,4.6536,4.6536,4.6622,4.6572,4.6529,4.6518,4.6522,4.6536,4.6556,4.6562,4.6698,4.6546,4.6552,4.6556,4.6559,4.6972,4.6978,0,0,0,0,0,0,4.6527,4.653,4.6652,4.6653,4.653,4.6544,4.6545,4.6581,4.6571,4.6563,4.6528,4.6515,4.6548,4.6554,4.6562,4.6758,4.6553,4.6559,4.6563,4.6965,4.6973,4.698,0,0,0,0,0,0,4.6524,4.654,4.6651,4.6588,4.6599,4.6554,4.6597,4.6585,4.6605,4.657,4.656,4.6557,4.6543,4.6552,4.6663,4.6757,4.6562,4.6569,4.6957,4.6967,4.6977,4.7155,0,0,0,0,0,0,4.652,4.6539,4.6604,4.6591,4.6603,4.6753,4.6602,4.659,4.6617,4.66,4.6595,4.6588,4.6539,4.6654,4.667,4.6763,4.6574,4.6948,4.6961,4.6974,4.7141,4.7171,4.7196,0,0,0,0,0,4.6514,4.6654,4.6608,4.6624,4.6683,4.6758,4.6765,4.6706,4.6625,4.6689,4.6667,4.6588,4.6746,4.6667,4.6683,4.678,4.6941,4.6957,4.6973,4.7128,4.7165,4.7195,0,0,0,0,0,0,4.6679,4.6651,4.6599,4.6739,4.6753,4.6732,4.6811,4.6747,4.6783,4.6766,4.6691,4.6691,4.6814,4.6809,4.6721,4.6944,4.6829,4.6849,4.6942,4.6976,4.7003,4.7,4.6579,0,0,0,0,0,4.6732,4.6796,4.6768,4.6894,4.6903,4.6857,4.6887,4.6841,4.6851,4.6856,4.6841,4.6854,4.6906,4.6942,4.6988,4.7141,4.7136,4.7216,4.7244,4.7266,4.7282,4.736,4.7394,4.7032,4.7031,4.7031,0,0,4.6841,4.6834,4.6878,4.6926,4.6931,4.6997,4.6862,4.6939,4.6987,4.6867,4.6969,4.6961,4.697,4.7102,4.716,4.7101,4.7382,4.7286,4.7305,4.7308,4.738,4.7414,4.7444,4.7042,4.704,4.7038,0,0,4.7072,4.7075,4.7178,4.7186,4.7195,4.7164,4.7189,4.7179,4.7168,4.727,4.7181,4.7238,4.733,4.7339,4.7356,4.7594,4.7521,4.7611,4.7753,4.783,4.7858,4.7883,4.7964,4.7994,4.7629,4.7629,4.763,0,4.7206,4.7303,4.724,4.7322,4.7344,4.7241,4.7344,4.7355,4.7379,4.7397,4.7332,4.7444,4.7444,4.7575,4.7633,4.7652,4.7676,4.7609,4.786,4.7884,4.7906,4.7982,4.8013,4.764,4.7639,4.7637,4.7636,0,4.7465,4.7534,4.7617,4.7641,4.7675,4.7768,4.7718,4.7759,4.7711,4.7686,4.7791,4.7787,4.7829,4.7859,4.7813,4.7984,4.7946,4.7873,4.7755,4.7952,4.8022,4.8051,4.7655,4.7651,4.7648,4.7645,0,0,4.7796,4.7786,4.7817,4.7826,4.783,4.7881,4.797,4.8011,4.8046,4.8068,4.8138,4.8219,4.815,4.817,4.8124,4.8193,4.8376,4.8109,4.8108,4.8155,4.856,4.8612,4.8647,4.833,4.8336,4.834,4.8557,0,4.8018,4.8166,4.8113,4.8265,4.8326,4.823,4.8306,4.8316,4.8297,4.8346,4.8324,4.8381,4.8288,4.8298,4.8362,4.834,4.8455,4.8325,4.8392,4.8395,4.8387,4.8684,4.8739,4.8944,4.8585,4.859,4.8593,0,4.8295,4.8327,4.8485,4.8476,4.85,4.857,4.8602,4.8652,4.8661,4.8642,4.8665,4.8605,4.869,4.8577,4.8691,4.8604,4.8629,4.8623,4.8629,4.8629,4.8502,4.8687,4.9009,4.9038,4.8636,4.8633,4.863,0,4.8515,4.8598,4.8702,4.8714,4.8708,4.8759,4.8759,4.8762,4.879,4.882,4.8837,4.8878,4.8898,4.893,4.8882,4.8805,4.9003,4.8886,4.8986,4.8988,4.9028,4.9025,4.9353,4.9054,4.9053,4.9053,4.9052,0,4.8765,4.8864,4.88,4.8864,4.8972,4.8911,4.902,4.9009,4.9013,4.9072,4.8994,4.9051,4.8986,4.9038,4.9002,4.91,4.9111,4.9096,4.9084,4.91,4.9102,4.9111,4.9094,4.9061,4.9059,4.9057,4.9056,0,4.9026,4.8988,4.9094,4.9081,4.908,4.916,4.9147,4.9205,4.9182,4.9257,4.9272,4.9234,4.929,4.9247,4.9303,4.9278,4.9406,4.9377,4.9403,4.9392,4.9493,4.9483,4.9835,4.9877,4.9556,4.9559,4.9562,0,4.9185,4.9259,4.9254,4.9288,4.9293,4.9349,4.9377,4.9321,4.9354,4.9371,4.9426,4.9476,4.9511,4.9606,4.9583,4.9625,4.9592,4.9714,4.9598,4.9611,4.9588,4.9582,4.9588,4.9735,4.9739,4.9742,4.9744,0,4.947,4.9448,4.9492,4.953,4.9566,4.9593,4.9614,4.9646,4.9589,4.963,4.9686,4.9715,4.9771,4.982,4.9854,4.9853,4.9789,4.9782,4.9806,4.982,4.983,4.9821,4.9461,4.9773,4.977,4.9768,4.9766,4.9765,4.9682,4.9742,4.9747,4.9798,4.9809,4.983,4.9883,4.9866,4.9912,4.9953,4.9918,4.9985,4.9993,5.0031,5.0039,5.009,5.0039,5.0076,5.0084,5.0093,5.0105,4.9827,5.0097,5.0096,5.0095,5.0094,5.0094,0,4.9958,4.9957,5.0006,5.0037,5.0077,5.0016,5.0036,5.0073,5.0133,5.0146,5.0183,5.0248,5.0295,5.0277,5.0319,5.0363,5.0335,5.0376,5.0369,5.0369,5.015,5.0122,5.0398,5.0398,5.0398,5.0398,5.0398,5.0398,5.0106,5.0204,5.0183,5.0284,5.0283,5.0347,5.0364,5.0383,5.0392,5.0467,5.0507,5.0495,5.0495,5.0536,5.0577,5.057,5.0587,5.0638,5.0621,5.0415,5.0385,5.0356,5.0329,5.0644,5.0644,5.0834,5.0836,5.0838]},{"header":{"parameterUnit":"m.s-1","parameterCategory":1,"la1":30.2991,"la2":30.254,"lo1":-89.0895,"lo2":-89.0444,"dy":0.0017,"dx":0.0017,"nx":28,"ny":28,"refTime":"2025-08-24T21:00:00:Z","depth":0,"parameterNumber":3,"parameterNumberName":"V-component_of_WINDS"},"data":[0,0,0,0,0,0,0,0,0,0,0,0,0,0,0,0,0,0,0,0,0,0,0,0,0,0,0,0,0,0,0,0,0,0,0,0,0,0,0,0,0,0,0,0,0,0,0,0,0,0,0,0,0,0,0,0,0,0,1.8318,1.8319,0,1.8355,1.8355,1.8356,1.8325,1.8324,1.8323,1.8321,1.8359,1.8361,1.8364,0,0,0,0,0,0,0,0,0,0,0,0,0,1.822,1.8222,1.8318,1.8319,1.8319,1.8355,1.8355,1.8356,1.8325,1.8324,1.8322,1.8321,1.8359,1.8361,1.8364,0,0,0,0,0,0,0,0,0,0,0,0,0,1.826,1.8223,1.8318,1.8308,1.8308,1.8355,1.8355,1.8356,1.8326,1.8324,1.8322,1.832,1.8358,1.8361,1.8364,1.8423,0,0,1.8374,1.8376,0,0,0,0,0,0,0,0,1.8258,1.8264,1.8309,1.8309,1.8308,1.8333,1.8335,1.8378,1.8326,1.8319,1.8321,1.8319,1.8352,1.8356,1.8367,1.8425,1.8426,1.8375,1.8377,1.8378,1.8379,0,0,0,0,0,0,0,1.8255,1.8262,1.8333,1.831,1.8309,1.8301,1.8305,1.8343,1.8346,1.8319,1.8317,1.8322,1.8352,1.8364,1.8368,1.8427,1.8374,1.8377,1.8379,1.8381,1.8532,1.8534,0,0,0,0,0,0,1.8254,1.826,1.8331,1.8334,1.8278,1.8305,1.8309,1.8327,1.8345,1.8346,1.8324,1.832,1.8359,1.8364,1.8369,1.8437,1.8378,1.8381,1.8383,1.853,1.8532,1.8534,0,0,0,0,0,0,1.8252,1.826,1.833,1.8296,1.8305,1.8308,1.833,1.8329,1.8341,1.8349,1.8349,1.8336,1.8358,1.8364,1.8409,1.8438,1.8383,1.8386,1.8527,1.853,1.8533,1.8575,0,0,0,0,0,0,1.8249,1.826,1.8283,1.8297,1.8306,1.837,1.8331,1.8331,1.8347,1.8343,1.836,1.8361,1.8357,1.8404,1.8412,1.8441,1.8388,1.8525,1.8529,1.8532,1.8571,1.8579,1.8586,0,0,0,0,0,1.8245,1.8294,1.8284,1.8293,1.8335,1.8372,1.8377,1.8372,1.835,1.8372,1.8376,1.836,1.8433,1.8409,1.8418,1.8448,1.8523,1.8527,1.8532,1.8568,1.8577,1.8586,0,0,0,0,0,0,1.8284,1.8296,1.8285,1.8339,1.8355,1.8367,1.8395,1.8383,1.8405,1.8401,1.8393,1.8397,1.8443,1.845,1.8423,1.8505,1.8474,1.8481,1.8498,1.8508,1.8515,1.8512,1.8391,0,0,0,0,0,1.8298,1.8327,1.8336,1.8383,1.8391,1.8392,1.8408,1.8402,1.8418,1.8424,1.8432,1.8448,1.8474,1.8491,1.8516,1.8572,1.8574,1.8597,1.8604,1.861,1.8616,1.8643,1.8653,1.8549,1.8549,1.8549,0,0,1.8329,1.8339,1.8358,1.8391,1.8402,1.8431,1.8398,1.8431,1.8452,1.8429,1.8471,1.8477,1.8494,1.8544,1.8566,1.8551,1.8645,1.8616,1.8621,1.8623,1.8649,1.8659,1.8668,1.8552,1.8552,1.8551,0,0,1.84,1.8411,1.845,1.8462,1.8479,1.8478,1.8488,1.8501,1.8504,1.8546,1.8528,1.8553,1.86,1.8611,1.8624,1.8696,1.8681,1.8704,1.8743,1.877,1.8778,1.8785,1.8809,1.8818,1.871,1.871,1.871,0,1.8436,1.848,1.8472,1.8506,1.852,1.8499,1.8538,1.8549,1.8574,1.8584,1.8566,1.8622,1.8632,1.8683,1.87,1.8711,1.8721,1.8702,1.8777,1.8784,1.8791,1.8814,1.8823,1.8712,1.8712,1.8712,1.8712,0,1.8522,1.8553,1.8582,1.8605,1.8622,1.8659,1.8655,1.8674,1.8666,1.8667,1.8709,1.872,1.8745,1.8757,1.875,1.8806,1.8796,1.8779,1.8748,1.8804,1.8825,1.8834,1.8716,1.8715,1.8714,1.8714,0,0,1.862,1.8635,1.8646,1.8655,1.8671,1.8694,1.8729,1.8753,1.8768,1.8785,1.8812,1.8851,1.8833,1.8847,1.8841,1.8865,1.8918,1.8843,1.8844,1.8856,1.8979,1.8991,1.9002,1.8909,1.8911,1.8912,1.8977,0,1.8689,1.8749,1.8742,1.8798,1.8825,1.8804,1.8834,1.8846,1.8848,1.887,1.8872,1.8898,1.8874,1.8882,1.8905,1.8907,1.8943,1.8903,1.8933,1.8935,1.8929,1.9013,1.9027,1.9088,1.8985,1.8987,1.8988,0,1.878,1.8798,1.8857,1.8866,1.8877,1.8904,1.8924,1.8946,1.8959,1.8958,1.8972,1.8961,1.8994,1.8963,1.9007,1.898,1.8992,1.8995,1.8997,1.8999,1.8964,1.9016,1.9108,1.9116,1.9001,1.9,1.8999,0,1.8842,1.8882,1.8922,1.893,1.8943,1.8961,1.8968,1.8978,1.8993,1.901,1.9019,1.904,1.9052,1.9068,1.9063,1.9041,1.9108,1.9077,1.9107,1.9107,1.9122,1.9121,1.9215,1.9131,1.9131,1.9131,1.9131,0,1.8921,1.8957,1.895,1.8974,1.9013,1.9004,1.9043,1.9047,1.9056,1.908,1.9064,1.9087,1.9079,1.9101,1.9096,1.9133,1.9139,1.9138,1.9136,1.9139,1.9139,1.9146,1.9141,1.9134,1.9133,1.9133,1.9132,0,1.8998,1.8995,1.9036,1.9043,1.9046,1.9074,1.908,1.9103,1.9102,1.9132,1.9139,1.9138,1.9162,1.9158,1.9186,1.9183,1.9228,1.9222,1.9224,1.9222,1.9252,1.9248,1.9353,1.9366,1.9275,1.9276,1.9277,0,1.9048,1.9075,1.9084,1.9099,1.9106,1.913,1.9143,1.9134,1.9149,1.9164,1.9184,1.9207,1.9225,1.9265,1.9267,1.9287,1.9281,1.9316,1.9284,1.9285,1.9279,1.9277,1.9279,1.9322,1.9323,1.9324,1.9325,0,1.9136,1.9132,1.9152,1.9171,1.9188,1.9203,1.9216,1.9229,1.9221,1.9238,1.9262,1.9276,1.9303,1.9326,1.9344,1.935,1.9336,1.9335,1.9343,1.9345,1.9344,1.9344,1.924,1.9333,1.9332,1.9331,1.9331,1.9331,1.92,1.9222,1.9231,1.9254,1.9262,1.9274,1.9295,1.9296,1.9316,1.9337,1.933,1.9358,1.9367,1.9391,1.9398,1.9419,1.9406,1.9418,1.942,1.9423,1.9426,1.9342,1.9422,1.9422,1.9422,1.9422,1.9422,0,1.9286,1.929,1.9311,1.9328,1.9346,1.933,1.9343,1.9358,1.9382,1.9393,1.941,1.9437,1.9458,1.946,1.948,1.9496,1.949,1.9501,1.9499,1.95,1.9437,1.9428,1.9505,1.9505,1.9505,1.9505,1.9505,1.9505,1.9332,1.9368,1.9365,1.9404,1.9408,1.9434,1.9443,1.9453,1.9461,1.9492,1.9509,1.951,1.9516,1.9536,1.9554,1.9554,1.9561,1.9575,1.9572,1.9514,1.9505,1.9497,1.9488,1.9577,1.9577,1.9633,1.9634,1.9634]}]]